Theta_e
321 321 322 322 323 323 323 323 325 326 327 328 328 328 329 328 327 328 327 327 327 327 329 328 329 329 329 330 329 328 324 322 319 316 313 316 325 331 334 333 334 333 334 328 316 313 311 312 311 314 314 314 315 311 316 314 314 313 305 302 301 303 302 306 304 304 306 303 304 302 304 303 302 302 304 304 303 303 305 304 306 308 306 306 302 303 309 307
321 321 321 322 322 323 323 323 324 325 326 326 327 327 328 328 327 327 327 327 327 327 327 329 328 329 329 329 329 326 324 323 316 315 316 327 333 330 334 334 334 335 331 319 313 312 311 311 311 312 311 309 319 311 313 312 313 308 305 304 301 304 306 306 306 306 304 304 306 305 304 304 304 304 304 301 302 302 302 303 304 304 305 304 302 304 306 304
321 321 321 322 322 322 323 323 324 324 325 325 326 326 326 326 327 327 327 327 327 326 327 328 329 328 328 329 328 319 324 319 318 314 317 327 331 334 332 333 333 335 327 317 315 314 312 311 311 310 310 308 312 309 311 311 308 308 306 302 303 308 307 306 306 305 306 306 304 304 305 304 305 305 304 300 302 304 301 302 302 302 303 304 302 303 304 303
321 321 321 321 322 322 323 323 324 324 323 324 325 325 325 326 327 327 327 327 327 326 326 328 328 329 327 326 327 332 326 321 310 313 316 330 332 331 333 332 332 332 327 317 315 313 312 312 312 311 310 307 310 312 306 310 305 309 304 301 305 306 304 306 306 306 305 305 304 304 304 302 305 305 303 302 301 302 304 305 305 303 304 306 303 302 304 302
320 320 321 321 321 322 322 323 323 323 324 325 325 325 325 325 326 326 326 326 326 326 326 327 329 329 326 328 323 329 320 307 310 315 319 330 329 332 329 332 330 327 320 316 313 312 312 311 310 309 309 306 309 308 306 309 309 308 304 307 306 306 303 306 305 305 304 303 303 304 301 302 306 304 303 303 300 301 305 308 308 308 308 308 303 302 303 302
320 320 320 320 321 321 322 322 323 323 324 324 324 324 325 325 326 326 326 326 326 326 325 327 328 328 327 325 330 326 314 298 313 321 325 326 329 326 329 329 327 324 316 312 311 312 311 310 309 306 305 306 306 304 307 308 308 301 306 306 307 306 304 305 304 302 302 302 302 302 304 305 302 302 304 303 302 305 307 307 308 309 309 310 305 304 302 302
319 319 319 319 320 320 321 322 323 322 323 323 323 324 325 325 325 325 325 323 325 326 325 326 328 328 326 324 327 319 312 311 313 322 324 324 321 328 327 324 322 316 313 310 310 311 312 311 309 307 307 306 306 306 306 306 305 303 302 305 305 305 303 305 303 301 302 302 302 304 303 301 302 299 305 303 305 307 309 306 306 306 307 307 304 303 303 303
319 319 318 318 319 319 320 322 322 322 322 323 323 324 325 325 325 325 325 325 325 325 326 325 327 326 325 329 318 311 312 310 317 316 318 321 321 321 324 318 315 316 312 310 310 310 311 309 309 309 305 304 306 305 305 304 304 302 302 305 305 303 304 305 304 302 302 302 304 301 300 301 303 303 304 302 305 307 308 307 305 305 306 306 305 303 304 304
319 319 319 318 318 319 319 321 321 321 322 322 323 324 324 325 325 324 325 325 325 325 325 325 325 327 323 321 314 308 307 321 315 316 317 316 315 315 316 316 314 313 311 310 310 311 310 309 309 309 305 305 307 304 304 302 301 304 304 304 304 303 304 305 303 303 302 303 302 300 300 302 304 304 300 303 305 307 308 308 306 305 304 304 304 304 304 303
319 318 318 318 318 318 319 319 320 321 321 322 323 323 323 324 324 324 324 325 325 324 324 325 326 324 323 317 314 302 316 312 315 316 313 313 313 313 311 315 312 312 309 310 310 311 310 311 311 311 310 307 306 304 304 302 302 301 303 303 302 304 304 304 302 303 303 302 302 299 300 302 302 300 298 306 307 308 307 306 307 304 303 303 303 304 304 303
319 318 318 318 318 318 319 319 319 320 320 321 322 323 323 323 323 324 324 324 324 324 324 324 323 319 321 316 308 303 316 317 315 315 313 314 313 312 317 315 312 313 310 311 310 312 313 311 313 310 309 305 304 304 303 303 303 303 301 301 302 303 303 303 302 302 302 300 302 301 300 302 302 300 299 304 302 305 305 305 305 303 303 303 303 303 304 303
319 319 318 318 317 318 319 319 319 319 320 320 321 322 322 323 323 323 323 324 323 324 325 324 322 320 317 312 307 310 311 316 317 316 315 317 314 314 315 311 310 317 315 309 313 318 316 314 313 308 303 307 303 304 303 303 303 302 301 298 301 303 302 303 301 302 302 300 302 302 298 297 299 297 302 305 303 304 304 304 304 303 303 304 304 303 303 303
319 319 318 318 317 318 318 319 319 318 319 320 320 321 322 322 323 323 323 323 324 325 323 322 316 318 317 307 311 312 314 315 316 315 315 316 313 313 312 314 312 310 312 311 313 316 314 312 311 307 309 306 306 301 302 302 302 301 301 299 299 300 299 304 304 302 300 301 301 301 292 298 300 301 305 307 304 303 302 302 303 303 303 303 303 303 303 303
320 319 318 318 318 317 318 318 318 318 318 320 320 320 321 322 322 322 322 322 325 325 326 324 329 320 314 307 313 313 313 316 314 314 314 317 315 315 315 315 314 313 316 314 312 312 311 309 310 307 308 305 303 305 302 301 301 298 301 300 296 297 297 302 302 300 298 301 300 301 294 296 301 304 306 306 304 302 301 302 303 303 303 302 303 302 302 302
320 319 319 318 318 318 318 318 318 318 318 319 320 320 320 320 321 321 321 325 325 326 324 321 323 317 308 307 311 313 320 312 311 315 317 311 312 312 311 311 311 311 312 312 310 309 309 311 310 305 303 303 304 301 301 302 301 300 297 296 300 296 299 300 303 300 299 298 301 299 294 296 300 303 306 305 304 303 302 303 304 304 303 303 302 302 302 302
320 319 319 318 318 317 317 317 317 318 318 319 319 319 319 319 320 321 322 322 322 325 326 324 316 315 307 303 312 317 314 309 310 318 314 312 317 311 314 310 310 310 309 307 309 308 309 310 305 305 303 302 301 300 299 299 300 302 297 296 296 298 299 300 299 301 301 299 299 299 295 298 299 303 302 303 303 303 302 303 304 304 304 304 302 302 301 302
320 319 319 318 318 317 317 318 317 317 318 318 318 319 320 320 320 321 324 320 322 323 327 312 314 312 301 312 312 308 309 313 311 314 311 311 310 314 310 309 308 308 309 308 309 309 308 306 305 304 304 301 303 302 296 295 296 298 301 296 300 297 298 296 298 298 300 300 297 298 296 297 300 302 303 300 303 302 302 302 303 303 304 305 304 302 301 301
320 319 319 319 318 318 317 318 318 317 318 317 317 319 319 321 319 321 322 322 323 322 320 315 314 309 304 307 304 305 310 310 315 312 313 309 310 310 309 307 307 307 307 306 307 305 307 303 304 300 302 301 300 299 294 291 295 295 296 296 296 299 299 298 297 299 298 298 297 298 296 297 299 301 302 303 303 302 302 302 303 303 303 304 304 303 302 301
320 319 319 319 319 318 318 318 317 317 317 318 319 321 321 320 319 320 316 313 310 307 302 305 305 297 297 306 308 308 313 312 312 311 307 309 309 310 309 309 309 305 303 302 303 303 305 304 305 300 296 299 298 298 297 298 299 297 298 297 297 295 296 296 300 297 299 296 295 296 295 297 299 300 302 303 304 303 301 302 303 303 303 303 303 304 303 302
319 319 319 319 319 318 318 317 317 317 317 316 317 319 319 313 313 307 307 310 305 306 306 307 308 308 307 305 306 310 313 314 307 310 311 310 308 305 306 306 308 305 302 300 303 302 308 298 297 296 298 300 302 302 301 301 301 300 299 298 295 295 296 300 301 296 298 296 296 297 297 297 298 300 301 302 303 302 302 302 302 302 303 303 303 303 304 303
319 319 319 318 318 318 318 318 318 317 317 316 315 312 301 302 300 299 302 304 308 308 306 306 307 306 305 310 312 307 306 306 309 309 309 312 310 305 302 304 302 299 301 302 303 303 302 297 297 300 301 302 302 303 303 301 300 298 297 296 295 297 295 300 300 295 297 294 295 298 297 297 298 300 301 302 301 300 301 301 302 302 303 304 304 304 304 304
319 319 319 319 318 318 318 318 317 317 316 316 314 307 305 304 309 306 300 297 305 308 310 307 304 302 306 305 312 313 308 303 305 307 310 309 305 301 303 301 300 297 302 303 302 299 297 295 299 301 303 303 301 301 301 299 298 298 296 296 295 296 300 301 297 295 295 294 293 296 295 295 298 299 301 300 300 301 302 302 302 303 303 304 305 305 305 304
319 319 319 319 318 318 318 318 317 317 315 313 312 306 306 306 309 311 306 303 300 309 306 304 302 302 303 307 306 308 301 300 299 307 306 308 303 302 303 300 299 299 303 301 297 297 294 297 301 303 303 301 300 299 298 298 298 296 296 294 292 297 297 294 296 294 294 294 294 295 293 294 297 299 299 301 301 301 303 304 304 305 304 304 305 305 306 302
318 318 318 318 318 318 318 317 317 317 314 310 310 307 308 307 308 310 308 298 297 304 306 306 305 304 303 303 308 304 301 301 302 302 308 306 302 303 302 301 299 299 298 300 299 297 296 301 300 301 302 300 298 298 296 296 295 298 297 296 295 297 298 297 297 295 297 296 294 294 292 294 296 296 298 300 302 301 302 303 303 304 306 306 308 308 308 303
318 318 318 318 317 318 317 317 313 310 313 312 309 307 308 307 307 310 304 299 299 300 309 306 308 308 307 308 307 302 303 302 303 307 307 306 303 302 300 304 300 296 298 300 299 297 297 302 301 299 299 298 298 296 297 297 294 296 299 298 298 298 297 298 299 295 294 293 294 294 288 290 297 298 299 300 299 298 300 299 299 301 303 304 304 305 306 306
318 318 318 317 317 317 317 313 313 312 311 309 308 309 307 308 308 308 303 295 291 300 300 297 308 301 313 303 306 304 302 298 304 306 307 306 308 304 302 299 301 295 298 299 298 299 299 300 299 299 300 299 298 296 299 299 294 293 296 301 300 298 298 298 297 295 289 288 293 294 288 286 295 295 297 298 298 298 300 299 299 300 302 303 304 306 305 303
318 318 318 317 317 317 312 308 314 312 310 310 311 310 307 307 312 306 296 292 289 301 297 305 303 302 311 305 304 303 291 296 300 303 304 306 302 307 298 298 299 299 300 302 298 294 300 297 297 299 298 297 296 294 298 298 295 293 296 297 298 297 297 296 296 294 292 296 297 294 293 287 287 294 298 298 297 297 298 299 300 301 302 303 304 306 304 303
318 318 318 318 317 316 313 312 311 308 308 309 312 309 308 309 311 308 295 283 284 306 299 298 303 309 308 303 306 299 297 296 297 298 301 302 303 302 299 297 298 298 298 299 289 303 299 298 296 296 296 295 295 298 303 301 297 296 294 298 296 296 296 296 294 292 293 291 287 291 294 287 287 294 298 297 294 295 296 297 298 300 302 303 305 307 304 304
318 318 317 317 316 314 316 313 310 308 312 313 310 309 308 310 304 300 292 282 301 299 309 299 310 305 301 302 299 299 297 299 296 297 302 302 303 301 297 298 299 299 300 299 293 300 297 297 299 299 297 295 299 293 297 301 296 295 296 296 296 296 295 295 292 292 291 288 284 289 292 286 287 295 294 296 295 294 296 298 299 301 302 304 306 306 304 304
318 318 318 316 315 314 314 313 309 315 312 312 309 307 309 307 301 291 287 280 303 293 299 302 299 299 302 297 297 298 294 296 296 297 300 299 301 301 299 300 298 298 297 298 297 299 296 295 296 297 298 299 293 292 293 294 295 296 297 296 295 294 293 292 292 290 288 284 286 291 293 290 284 292 293 292 294 296 298 299 300 302 304 304 307 307 305 303
318 318 318 316 313 316 313 308 312 313 311 309 308 307 307 301 292 288 282 291 299 298 300 298 296 303 298 297 295 299 298 297 295 297 294 297 296 298 299 297 301 296 294 295 293 298 296 294 295 297 297 295 297 293 293 293 296 297 294 293 293 291 291 290 289 289 284 283 290 293 293 292 283 289 294 297 299 299 299 299 300 301 302 305 306 305 304 302
317 318 318 316 317 317 309 308 312 313 311 310 308 306 300 290 294 284 285 299 291 297 296 297 300 299 298 300 302 297 296 297 297 295 295 294 294 292 293 293 294 289 289 290 290 297 294 295 297 297 296 297 294 295 291 293 293 295 293 292 288 287 287 284 285 282 283 283 288 293 294 289 287 292 296 297 298 299 300 300 300 301 302 304 308 305 303 302
317 316 317 317 315 314 313 316 314 313 311 309 306 302 293 288 282 291 291 294 292 301 296 304 299 298 299 298 297 299 301 296 298 295 298 297 295 296 297 296 299 298 291 296 292 292 294 298 297 298 295 296 298 291 292 288 290 291 290 289 287 283 283 281 284 287 287 289 291 289 294 287 292 293 298 297 299 300 300 301 303 302 302 303 309 305 302 302
318 317 315 315 316 316 317 315 314 312 309 308 301 296 291 285 284 299 295 294 298 296 300 299 298 299 299 296 298 300 294 299 296 295 296 295 294 293 295 297 298 297 295 293 289 292 288 289 293 295 292 298 296 296 297 296 290 291 296 293 289 289 285 281 284 282 284 287 287 290 285 284 285 290 298 299 301 301 301 302 303 304 306 307 303 305 303 302
318 317 317 317 315 316 315 315 314 314 309 304 297 291 284 285 290 290 292 296 299 298 297 297 298 297 295 297 299 299 299 297 298 295 294 294 292 292 294 295 297 298 298 290 294 291 291 290 299 299 298 297 295 299 301 297 293 293 295 296 290 288 294 286 288 287 285 284 285 284 283 290 290 297 299 301 301 300 301 301 302 302 302 304 299 300 301 301
316 315 317 312 310 314 313 314 314 311 307 301 292 286 285 289 288 294 293 299 298 297 296 297 300 295 294 295 299 297 303 296 298 296 294 294 296 294 298 299 296 298 294 289 294 287 289 288 296 295 294 295 294 296 298 300 288 292 293 288 291 298 295 289 289 287 283 284 282 288 287 290 295 296 298 298 298 299 299 299 300 300 301 303 302 302 301 300
313 315 309 312 311 314 313 312 311 309 306 297 290 285 290 291 297 298 298 296 296 298 296 290 293 292 292 292 295 295 297 297 295 293 291 296 292 296 297 298 302 299 299 297 292 295 288 291 290 294 290 290 289 292 295 294 297 292 286 292 296 298 296 289 283 286 285 281 283 290 286 287 289 286 296 295 295 296 297 298 299 300 301 301 302 303 302 301
313 312 312 312 314 314 312 311 310 306 300 293 287 290 296 292 298 298 299 296 294 299 295 291 293 298 292 292 292 295 297 293 293 292 291 296 291 302 297 297 301 300 299 300 293 292 295 287 293 289 289 290 291 294 293 295 294 292 291 296 289 285 283 289 286 279 279 279 282 286 288 288 290 290 291 292 293 294 296 298 298 298 299 300 302 302 303 302
313 310 304 312 316 314 311 310 307 300 295 288 286 287 294 296 299 298 297 297 300 297 291 294 292 296 295 291 294 297 296 290 295 292 290 294 290 300 298 299 298 300 300 299 293 292 295 288 289 286 289 290 290 291 286 289 293 292 293 292 294 289 288 286 286 287 286 280 281 281 286 284 294 294 295 293 294 295 296 297 297 297 299 299 300 301 302 303
308 302 302 313 313 312 311 309 301 297 291 285 288 289 297 295 298 298 297 297 296 294 293 293 295 291 295 295 296 293 297 296 295 294 293 296 294 301 298 302 300 299 299 298 294 297 290 292 285 286 287 291 285 289 287 291 286 286 287 287 289 287 290 289 289 286 285 282 282 281 281 286 293 297 296 295 296 297 297 297 299 299 299 300 301 301 304 305
311 304 302 311 312 312 310 303 295 290 288 292 295 294 295 294 298 297 298 298 297 298 294 294 293 291 293 292 293 296 294 295 295 294 294 295 294 290 300 300 302 299 299 297 293 293 289 287 285 285 283 285 289 294 293 295 294 290 288 287 289 286 284 282 281 290 286 285 281 281 280 287 295 297 298 296 297 298 299 299 300 300 299 300 301 302 303 305
305 296 302 310 312 311 303 292 292 294 290 288 289 295 293 299 296 298 298 298 297 294 296 292 293 292 292 292 294 294 293 293 294 294 296 293 297 295 300 302 301 300 294 289 291 296 294 289 287 286 288 290 293 295 292 292 293 295 293 290 293 291 290 285 280 284 285 285 287 286 283 285 296 297 297 296 297 297 299 299 298 301 300 300 302 303 303 304
302 300 307 308 311 309 300 291 293 291 288 292 299 297 299 297 296 298 296 296 294 294 291 291 291 290 292 291 292 291 292 289 292 291 295 296 297 299 305 300 303 299 299 293 297 293 292 287 285 286 291 292 288 288 291 290 292 290 291 294 293 289 290 289 288 289 286 286 283 284 280 285 296 298 298 297 297 298 298 298 298 298 300 300 301 302 302 304
304 300 299 308 311 308 298 287 286 287 289 293 295 294 300 298 296 295 295 296 294 292 291 290 292 293 290 294 290 288 293 285 290 290 289 292 291 298 299 300 300 297 296 294 292 295 288 287 287 284 284 285 288 289 287 289 290 288 289 292 293 294 294 293 292 289 284 286 287 284 279 285 295 297 298 298 298 296 296 297 298 298 299 300 300 302 302 302
302 302 300 302 307 305 295 297 293 290 289 289 291 291 293 295 297 297 296 295 297 294 291 290 292 294 293 293 290 290 290 289 286 290 291 290 291 296 299 299 300 296 298 301 294 297 289 288 286 281 278 277 277 279 282 283 283 287 290 291 292 291 291 289 284 286 282 285 287 284 283 290 294 297 296 297 296 295 296 297 297 298 299 299 301 302 302 301
299 292 297 297 300 298 298 302 300 296 291 290 289 291 294 291 296 298 299 296 298 296 294 292 289 292 291 289 287 287 288 291 288 286 288 287 290 292 291 291 294 296 294 292 293 294 286 287 289 286 284 283 285 288 293 292 288 284 287 288 289 292 292 290 288 285 282 285 285 286 287 288 290 293 294 295 296 295 296 296 294 295 296 299 301 301 301 300
302 296 294 288 296 296 294 298 295 297 292 295 287 292 291 292 294 295 300 293 297 296 294 292 290 289 288 289 287 287 289 288 289 288 287 287 289 290 290 290 291 292 292 291 291 289 285 284 287 289 288 288 290 290 292 293 289 289 288 287 289 289 289 287 285 283 289 286 281 288 290 287 288 292 293 294 295 296 297 297 298 297 296 298 299 300 298 299
292 297 302 300 294 287 290 289 295 294 296 297 291 295 292 292 293 291 297 298 299 299 293 292 292 292 292 291 291 286 288 288 287 285 289 288 288 290 290 291 289 291 290 289 289 288 284 284 287 288 287 290 291 290 291 290 290 290 290 289 288 289 288 285 285 289 290 285 283 289 290 287 290 292 294 295 296 296 297 297 297 299 299 299 297 296 295 296
300 299 299 304 294 296 293 294 296 294 293 295 293 294 292 293 292 295 295 295 296 294 296 288 291 292 292 292 291 288 289 285 285 288 287 287 287 287 286 288 291 290 288 287 288 288 287 284 286 288 286 288 288 289 291 289 289 289 288 288 289 289 288 288 288 290 289 287 289 290 290 290 293 294 295 296 297 297 297 298 298 298 297 298 297 296 296 296
293 295 293 300 298 296 298 296 293 292 290 293 289 290 293 292 292 295 297 296 291 293 297 292 293 295 293 292 290 288 290 291 291 289 290 288 288 289 287 289 288 287 287 286 288 287 287 283 288 286 284 284 286 288 289 289 288 287 288 289 288 289 289 289 289 290 290 289 290 290 289 288 294 296 296 297 298 298 298 296 297 298 298 297 297 296 296 297
297 297 295 290 287 290 292 292 293 292 289 291 290 290 293 293 293 296 295 300 296 294 295 292 295 295 294 292 292 291 294 294 294 294 296 293 288 292 289 287 292 285 285 285 286 286 287 284 287 285 282 281 286 286 286 287 287 286 285 287 287 288 286 288 287 290 288 286 288 288 286 287 293 296 297 297 296 296 295 296 296 297 297 296 296 296 296 296
297 297 297 292 285 292 290 292 291 290 286 290 291 291 292 292 296 297 293 299 300 300 299 297 297 295 294 294 292 294 296 297 296 297 298 299 299 296 294 294 294 289 286 286 289 286 285 284 283 283 280 279 285 286 285 285 284 281 282 286 287 288 289 290 291 291 291 291 286 284 285 291 293 295 294 294 295 295 295 295 296 296 296 296 296 296 296 297
Wind_Speed
13 14 15 15 15 15 15 16 16 17 17 17 17 17 17 16 15 12 12 14 13 10 7 8 6 6 5 4 3 2 4 4 6 7 8 2 7 5 4 1 1 1 5 3 3 5 6 7 8 6 5 4 3 5 4 3 1 4 5 6 7 7 8 2 5 5 3 8 2 6 8 8 9 6 5 1 8 9 8 8 8 7 7 2 6 2 9 14
12 14 15 15 15 15 15 15 15 16 16 16 16 17 17 17 16 15 12 11 13 13 10 7 7 6 5 5 2 2 3 6 10 9 9 5 7 5 4 1 1 4 5 5 6 6 6 6 7 7 6 7 4 2 4 2 3 6 5 6 8 6 3 3 5 6 6 6 3 3 6 8 8 9 7 7 9 11 13 13 10 11 11 7 8 7 13 14
13 14 14 14 14 14 14 14 14 15 15 15 15 16 16 16 16 16 15 12 11 12 13 9 8 7 5 4 2 3 2 8 9 14 3 3 6 4 1 1 2 5 6 5 4 6 6 6 4 7 7 7 6 4 6 3 4 8 6 7 8 2 4 2 3 6 4 5 6 4 5 7 6 3 8 8 12 11 16 12 12 15 15 16 12 12 14 14
14 14 15 14 13 14 14 14 14 14 14 14 15 15 15 14 15 17 16 15 12 12 12 11 8 6 6 5 2 4 5 6 11 1 5 5 4 3 2 2 2 6 6 6 4 5 4 5 5 7 5 7 4 3 5 4 4 3 5 7 5 3 5 4 3 4 4 2 7 6 1 6 8 6 7 6 9 15 15 14 14 16 17 16 16 15 14 15
15 15 15 16 15 15 14 14 14 14 14 14 14 15 14 14 14 15 16 17 14 13 12 12 9 7 6 6 6 4 4 7 1 4 7 6 4 2 1 0 3 5 5 3 3 5 5 4 4 5 5 6 6 5 9 5 3 2 8 9 6 2 6 1 0 3 1 1 4 6 6 7 2 6 11 11 13 11 8 9 16 15 12 13 17 16 15 16
15 15 16 16 16 15 15 14 15 15 15 15 14 15 14 14 14 13 15 16 15 13 14 12 10 8 6 6 5 5 3 3 2 3 4 4 2 3 1 2 2 5 4 5 6 4 6 5 5 6 5 7 7 7 3 4 4 7 10 12 7 6 8 2 2 2 2 4 7 7 7 3 7 8 11 14 19 15 2 3 3 6 9 5 18 16 15 17
14 15 16 16 16 16 15 15 15 16 15 15 15 15 13 14 13 13 13 16 15 13 13 12 10 10 8 4 5 5 8 7 5 4 4 3 2 2 2 2 4 4 6 6 7 6 6 6 6 7 8 7 9 9 4 5 5 7 8 2 6 4 8 3 2 4 3 6 8 5 4 7 8 13 9 16 20 18 10 4 2 2 2 9 14 17 18 19
12 13 14 16 16 15 15 15 16 16 16 16 16 16 15 14 14 13 13 15 15 13 12 12 10 8 8 4 3 5 7 7 5 2 4 1 3 4 4 3 5 4 6 8 6 7 4 8 7 2 7 9 3 6 3 5 8 9 9 8 3 1 8 7 4 5 5 7 7 3 8 13 11 12 7 17 17 15 16 7 6 5 6 9 12 15 15 16
11 12 12 13 15 15 15 15 16 16 17 17 17 16 16 15 14 13 13 15 15 13 12 11 9 8 5 5 5 6 9 3 2 4 1 3 3 5 2 4 6 6 5 5 4 5 4 4 4 3 6 6 2 8 3 5 8 10 10 6 7 6 6 6 6 8 8 4 5 6 13 12 12 6 15 22 19 16 14 14 9 8 9 11 13 14 15 16
12 13 12 12 14 15 15 16 16 17 17 17 17 17 17 16 15 14 14 14 14 13 12 9 6 6 4 4 5 6 1 2 3 2 3 3 5 5 5 3 2 7 6 4 4 6 6 4 3 2 5 9 5 6 4 6 4 3 7 7 9 11 8 7 10 10 6 7 6 10 11 11 2 2 13 11 10 10 14 14 12 10 12 13 12 12 14 16
12 12 13 13 12 14 16 16 17 18 18 18 17 17 17 16 16 14 15 16 14 13 10 8 5 2 4 4 7 8 3 3 0 2 2 3 2 4 1 1 2 4 7 3 5 3 4 2 3 1 3 3 1 4 5 3 6 7 6 10 13 14 13 11 9 12 5 8 12 10 12 11 6 7 19 9 4 4 9 11 12 11 12 12 14 13 13 14
10 12 13 13 13 14 15 16 17 18 19 19 18 18 17 17 16 15 14 15 14 9 7 3 1 3 6 7 8 5 0 3 1 2 3 3 2 2 1 1 2 3 5 6 3 1 3 1 4 4 4 4 6 3 5 3 4 4 6 10 13 12 11 12 14 12 11 6 7 4 8 13 13 13 23 17 7 8 9 10 12 12 12 12 12 13 12 14
6 9 12 12 13 13 14 17 17 18 19 20 19 19 18 17 16 15 15 15 9 8 3 2 1 4 5 8 6 4 2 3 3 4 4 4 6 3 3 1 1 2 2 5 2 2 1 1 3 8 3 4 8 5 3 4 3 5 8 9 12 12 14 15 9 5 8 5 7 5 8 11 16 25 20 10 11 9 9 11 12 11 11 11 12 12 13 12
6 8 10 12 12 12 13 16 17 18 19 19 20 21 20 18 15 15 14 12 11 4 3 3 3 4 4 8 3 0 2 1 1 4 5 4 5 3 3 2 2 1 1 2 5 2 2 0 3 1 0 5 4 4 5 4 4 6 2 3 8 9 11 8 8 10 8 6 8 6 10 14 11 12 17 10 11 11 12 12 12 12 12 11 12 12 13 14
7 8 10 12 13 12 12 15 15 17 18 18 20 21 21 21 16 15 12 7 4 1 3 2 4 3 6 5 5 4 2 1 4 5 3 5 5 4 4 5 4 4 4 4 4 1 1 2 4 5 4 2 2 5 8 9 7 7 6 9 8 9 7 8 7 13 10 4 8 8 10 14 16 13 6 10 10 10 11 11 12 13 12 13 12 13 13 13
9 9 9 10 13 14 14 15 15 17 17 18 19 21 20 19 14 12 7 4 2 2 3 3 5 5 7 11 2 3 3 5 5 5 2 2 4 4 5 5 4 4 4 3 2 2 3 4 5 3 2 3 5 7 9 9 9 9 9 11 11 10 10 9 12 10 6 7 8 14 9 8 10 6 5 4 8 9 10 11 12 14 16 15 13 12 13 12
9 10 9 10 13 15 14 15 15 16 18 18 21 20 18 15 10 8 3 5 2 2 3 2 4 4 7 2 2 4 5 4 3 3 3 1 2 3 7 6 4 4 3 4 2 3 4 5 3 3 5 9 7 5 5 9 10 9 9 9 10 12 11 11 6 6 7 8 9 14 12 16 15 13 5 7 8 10 11 15 16 16 16 16 13 13 14 14
10 10 10 11 14 14 15 15 15 17 19 19 20 18 16 17 8 2 5 4 1 3 2 2 3 2 9 4 7 2 4 4 3 3 2 1 3 5 5 5 2 5 5 5 4 7 6 5 4 8 6 8 8 8 7 10 9 10 10 10 11 11 13 14 11 7 9 9 11 11 16 20 19 16 18 14 11 13 15 16 18 19 19 16 15 14 16 15
10 10 10 12 12 13 14 16 18 19 20 22 22 20 11 6 2 4 3 4 4 3 4 6 5 7 5 3 4 6 1 3 3 3 4 5 3 3 1 2 6 7 6 6 5 9 5 5 3 5 11 11 12 14 13 15 14 15 14 12 12 12 13 14 7 8 11 9 10 14 16 17 18 17 16 16 16 15 15 16 16 19 19 16 16 16 15 14
9 10 11 12 12 12 14 16 18 19 21 16 10 6 3 3 3 3 5 7 10 11 8 2 12 7 6 5 4 4 2 4 4 5 5 2 6 6 7 6 4 5 8 7 6 8 3 7 8 10 14 13 14 16 18 16 14 13 11 10 15 16 18 17 15 6 4 5 13 15 18 19 20 19 17 18 16 17 19 18 18 18 15 14 15 17 17 15
8 9 11 11 11 12 14 15 16 18 20 10 9 5 5 5 8 8 1 7 11 9 12 12 9 9 10 5 4 6 3 6 5 6 6 6 4 8 8 7 8 9 11 11 7 4 3 9 13 20 18 16 14 10 11 13 12 12 14 14 14 13 16 14 9 7 5 5 9 12 16 18 19 17 18 17 17 20 20 21 22 20 18 15 16 17 15 12
8 9 9 10 11 12 14 15 15 16 18 6 5 4 3 4 3 3 2 9 8 10 3 8 4 8 5 5 3 1 4 7 8 9 4 6 7 9 8 11 11 11 7 8 4 4 8 12 18 20 12 3 2 4 8 12 14 12 10 11 11 14 14 16 3 5 4 5 10 11 14 17 19 18 19 19 21 18 17 22 21 18 17 14 14 14 11 9
8 8 10 10 10 12 13 15 14 16 7 3 3 4 2 3 5 3 2 7 13 8 11 10 10 13 13 3 4 5 9 12 12 11 12 9 9 11 7 10 12 11 7 11 11 9 10 13 23 18 5 6 8 5 8 9 11 10 9 8 12 12 8 7 4 3 6 5 8 11 15 17 20 21 24 24 22 19 18 20 18 18 16 15 16 10 8 11
9 8 9 9 9 12 14 14 17 10 3 3 4 3 2 2 4 5 3 7 8 5 10 9 9 12 15 11 8 12 14 10 9 11 11 12 11 7 9 14 13 12 13 15 17 14 15 8 6 4 4 7 12 7 7 8 10 10 12 11 13 13 13 11 5 2 6 12 4 9 13 14 14 16 13 16 18 15 16 13 14 15 13 14 12 8 7 11
9 9 9 8 8 11 13 15 6 4 6 5 1 2 0 2 2 4 4 7 8 8 5 3 4 7 6 6 6 9 10 8 10 3 10 13 12 7 10 8 9 15 16 15 15 16 18 14 5 3 4 6 7 9 11 10 11 10 13 17 17 15 15 16 6 7 7 11 5 4 13 12 10 12 12 5 5 7 9 9 13 14 13 12 12 11 8 9
9 8 8 6 8 10 15 6 3 6 8 2 3 4 2 1 4 3 3 5 11 4 4 7 9 3 5 6 7 7 8 8 1 2 9 2 4 6 3 7 8 14 13 16 14 9 10 3 4 9 8 7 9 12 13 8 11 9 8 8 16 16 15 13 11 5 7 7 2 5 5 17 8 7 8 6 7 9 7 9 12 10 10 10 10 8 10 11
9 8 7 4 5 9 8 2 5 7 6 2 3 4 3 3 1 4 4 7 13 8 9 3 3 2 1 4 7 6 5 5 4 4 3 2 7 3 8 8 4 4 3 1 1 8 7 5 5 4 8 9 8 11 13 14 9 9 4 2 1 6 9 10 7 7 12 10 6 6 5 16 15 8 8 10 11 10 9 12 13 9 11 12 12 9 10 10
9 8 7 5 2 3 4 6 7 5 4 3 4 3 3 3 3 3 2 8 6 7 5 4 1 2 2 2 3 8 3 3 3 4 3 1 1 6 8 15 12 9 8 6 14 2 6 6 8 8 9 7 12 9 1 12 10 2 2 3 2 1 4 2 5 7 8 9 9 6 10 9 14 4 18 16 13 13 14 15 15 15 13 12 12 8 10 11
10 9 7 5 2 1 4 5 5 6 4 3 3 4 2 2 3 3 3 10 3 3 5 4 0 3 4 3 7 1 2 2 3 4 1 1 5 2 10 14 13 9 8 14 14 4 3 2 4 9 7 10 3 6 5 6 11 3 3 7 6 4 3 3 4 5 8 8 14 8 13 8 22 5 8 13 14 13 14 14 15 14 12 10 8 7 9 9
11 10 8 7 4 4 5 3 6 1 2 1 2 4 4 3 3 5 6 12 3 3 4 3 5 8 11 10 7 6 5 1 3 3 5 4 8 3 2 4 3 6 8 9 10 7 2 2 2 2 10 4 6 5 4 7 5 8 4 3 2 1 3 2 4 4 5 14 16 15 17 13 19 3 10 12 9 13 11 10 11 11 9 9 7 8 8 9
12 12 11 11 6 2 1 5 3 3 0 1 2 4 3 2 5 6 17 3 7 2 4 5 7 9 12 13 7 11 8 4 4 8 4 2 5 7 3 2 3 4 5 6 8 13 6 5 2 5 2 5 5 5 5 1 1 5 3 3 2 5 2 4 3 2 5 16 5 15 19 20 14 4 8 12 14 16 13 9 9 9 8 8 7 7 9 10
14 13 14 12 8 3 6 1 5 3 1 1 2 3 4 5 6 15 10 10 6 6 10 8 7 7 11 12 4 9 10 7 8 9 10 8 7 10 13 11 8 4 8 8 10 6 10 13 10 4 3 8 6 4 3 3 4 5 5 4 5 4 1 4 4 5 9 12 4 7 15 12 24 17 3 7 9 14 9 8 8 8 8 7 6 8 8 8
15 15 16 13 8 8 10 1 5 3 3 1 2 5 5 5 14 15 10 7 5 6 3 3 9 10 6 9 8 6 1 6 11 11 9 6 8 11 11 12 10 6 7 4 8 3 5 3 10 9 4 9 9 10 5 3 10 10 10 9 5 8 7 9 8 8 10 8 6 6 4 14 8 9 17 19 13 13 13 10 8 8 8 6 5 7 8 8
16 15 13 12 13 11 5 7 4 6 1 1 3 5 7 8 18 9 13 13 11 3 4 3 5 7 5 10 7 10 6 7 9 8 12 6 9 9 11 17 13 6 5 3 5 5 7 7 9 13 7 13 16 17 12 4 12 13 9 10 10 7 3 6 7 10 11 7 2 4 2 5 2 3 17 23 21 17 14 9 8 9 5 4 4 5 6 7
17 16 12 10 11 11 8 8 7 6 3 3 1 8 11 16 11 6 7 7 4 3 3 2 5 8 9 10 1 7 8 4 11 8 10 10 9 10 12 13 19 11 3 6 5 0 11 14 2 9 3 14 14 13 3 6 2 9 8 7 7 12 8 13 7 6 4 7 10 7 7 4 7 4 6 7 14 16 12 12 9 9 8 6 5 5 7 8
12 11 12 7 8 9 9 8 8 7 6 6 6 7 17 15 7 5 6 5 4 8 7 3 3 8 9 7 5 10 4 4 7 7 7 12 12 12 11 6 15 22 11 11 4 4 2 9 7 4 1 6 4 3 8 4 7 7 9 9 9 5 6 8 10 2 2 3 17 4 9 12 11 17 12 9 14 16 15 15 12 12 10 8 7 6 8 8
11 6 6 7 9 11 11 10 8 7 3 7 10 14 15 11 16 10 2 6 2 6 8 11 9 9 8 10 8 12 6 2 6 6 7 6 10 16 7 12 12 18 20 12 7 6 8 4 2 6 7 2 2 5 3 4 2 9 6 6 5 3 4 3 7 3 7 10 15 4 14 16 8 12 12 16 16 16 18 14 15 13 10 9 8 7 8 9
6 5 9 12 12 14 13 10 9 6 6 7 13 17 5 14 7 15 2 3 1 6 8 11 7 12 9 10 10 11 10 11 8 8 8 10 9 13 15 5 13 15 22 17 10 3 2 7 4 1 4 2 1 1 4 2 3 3 1 6 5 5 5 10 4 8 8 11 9 18 21 16 15 14 7 15 17 18 16 14 13 10 9 11 8 9 8 8
5 2 4 12 13 16 13 12 9 10 7 9 12 14 9 14 5 1 1 4 1 5 11 12 12 7 10 12 8 7 14 12 8 9 5 7 12 8 12 11 9 18 17 16 10 4 1 8 4 1 2 4 2 6 7 8 4 3 3 4 1 3 5 8 9 4 5 12 10 19 23 18 8 8 10 15 18 16 16 14 11 12 12 10 8 8 11 10
5 2 7 4 16 13 13 12 8 6 5 13 15 14 4 7 12 7 3 7 8 10 10 12 12 14 9 10 8 7 9 10 10 10 12 5 13 8 10 11 6 10 16 16 12 7 5 4 7 3 5 2 5 10 10 12 11 6 6 8 5 4 2 4 4 7 8 9 10 10 15 18 5 9 10 13 16 14 13 13 9 9 10 10 10 10 9 7
3 4 2 7 16 16 13 9 7 11 11 5 9 12 12 10 4 4 7 1 2 2 4 6 9 13 10 11 11 8 5 8 8 9 8 9 11 9 9 11 7 4 3 0 9 4 3 4 15 4 3 11 9 8 17 17 15 14 16 15 17 10 7 7 10 6 3 6 7 9 14 20 8 6 5 6 4 7 10 9 8 8 10 9 10 10 11 12
4 7 2 12 16 20 16 9 5 5 4 11 14 7 8 5 13 15 7 3 2 4 4 3 6 11 9 13 13 8 6 5 8 9 7 13 9 15 3 14 10 12 10 7 12 15 8 4 8 11 11 9 9 2 3 4 3 4 8 10 13 12 11 9 10 7 0 6 8 12 13 24 3 10 7 7 6 3 6 8 8 8 10 10 9 10 12 11
4 6 4 18 17 19 13 9 8 9 9 8 7 10 7 7 4 1 6 6 9 5 2 3 10 9 11 12 11 11 7 9 8 11 7 7 11 11 1 9 6 8 6 2 1 2 7 3 4 13 8 3 2 1 0 1 1 4 7 7 9 15 15 12 10 5 5 6 8 10 16 15 8 9 4 5 5 5 6 7 9 9 9 9 11 12 11 8
3 2 1 6 16 15 14 10 7 15 10 6 8 12 8 5 4 7 11 9 7 4 10 6 6 12 11 5 2 8 3 12 7 15 11 6 8 5 4 5 10 6 7 5 9 8 4 3 10 6 5 5 10 2 3 3 6 9 11 11 13 10 10 9 1 2 4 13 19 14 16 9 14 10 9 15 6 8 9 11 10 10 9 10 12 11 10 10
1 1 1 5 10 9 15 11 13 11 13 14 12 16 12 9 9 17 14 11 11 8 1 5 9 2 3 2 9 7 6 11 7 7 11 5 10 5 7 8 2 8 11 5 8 5 11 5 10 11 13 15 13 16 17 6 10 8 10 13 14 16 14 8 9 7 14 18 26 16 16 19 24 19 20 13 5 7 11 11 8 10 12 11 11 10 10 11
5 6 5 5 8 10 8 4 7 10 11 12 13 14 12 15 5 15 16 15 13 10 12 3 1 2 5 4 7 9 13 10 11 3 8 5 9 3 1 5 4 8 10 14 11 3 2 2 12 15 16 14 17 18 6 6 7 8 11 17 15 16 19 16 10 12 17 19 16 18 24 25 22 25 23 25 14 8 10 9 9 10 9 11 13 12 12 12
4 8 6 5 2 11 10 10 9 9 13 13 11 7 18 20 13 10 13 8 14 18 11 11 6 8 7 11 12 14 16 13 12 13 12 16 12 13 2 3 3 5 6 7 8 3 2 6 11 17 22 21 19 21 21 21 17 11 12 15 17 18 16 18 17 22 21 9 19 15 25 24 20 21 24 27 24 21 21 23 15 9 10 9 9 11 12 13
9 4 7 8 10 7 12 14 14 13 11 14 13 9 17 17 19 17 8 15 5 11 9 3 13 20 17 18 14 11 9 15 8 12 12 16 14 15 16 10 12 3 2 2 2 1 3 10 11 15 20 22 24 25 25 25 23 20 16 16 16 18 19 21 27 26 17 17 18 20 30 25 19 17 22 27 25 26 21 20 21 21 18 7 7 9 13 14
9 5 5 1 9 6 18 15 20 20 19 20 10 17 19 19 22 21 13 6 13 10 16 12 17 20 23 23 17 14 12 8 9 14 12 12 19 14 9 7 15 8 5 3 1 2 1 11 12 15 18 18 19 21 24 28 27 25 22 15 12 14 21 29 26 16 20 26 27 28 26 27 18 19 23 26 30 27 23 19 19 16 11 13 8 9 14 15
5 6 5 3 9 8 8 7 12 12 15 17 12 15 14 20 25 19 17 14 9 12 16 22 17 19 21 23 22 18 18 20 22 19 12 19 13 8 10 14 4 3 5 9 5 2 9 11 12 14 14 17 20 24 25 28 26 28 23 21 18 17 23 24 16 12 21 25 24 22 27 24 17 22 24 31 26 23 20 22 19 15 24 24 19 19 22 25
5 6 8 9 10 6 7 11 9 12 13 14 15 14 15 20 23 21 19 19 23 14 17 26 21 25 18 19 20 21 22 24 26 29 26 15 14 13 13 1 15 5 5 3 4 3 11 13 9 10 12 15 18 24 28 27 26 24 21 19 21 27 27 22 18 16 15 19 20 18 17 15 20 27 26 23 23 24 24 23 23 21 25 25 18 18 20 23
5 4 5 6 7 2 9 4 9 8 13 9 13 14 15 23 24 20 21 15 21 23 18 19 19 18 15 21 25 21 22 25 28 28 23 21 16 4 3 4 11 10 5 9 6 7 8 7 9 9 14 18 18 19 21 20 18 17 19 25 32 35 28 25 24 24 21 16 17 16 16 20 22 22 22 24 26 23 19 20 20 26 25 16 14 17 19 20
Wind_Direction
16 16 14 13 11 8 3 360 358 356 355 354 353 351 350 350 352 350 353 350 341 343 339 324 324 318 311 311 305 324 313 258 271 246 231 274 94 121 104 79 86 159 183 241 211 191 196 212 214 172 214 209 173 236 131 213 265 218 222 239 257 263 262 354 272 276 13 295 131 182 194 222 226 155 200 143 240 240 248 214 228 216 211 200 121 153 144 141
15 15 13 12 10 7 3 358 356 354 353 351 350 349 348 345 345 348 346 351 346 335 338 335 321 318 315 302 299 276 281 270 272 274 257 94 79 82 76 302 125 140 215 233 219 213 242 212 216 184 217 230 131 230 157 179 211 224 247 253 270 286 359 330 297 295 288 279 313 211 199 221 254 157 163 204 225 218 234 235 222 225 221 175 146 154 150 157
14 12 13 11 9 4 360 357 355 353 351 349 346 347 345 340 338 342 343 343 345 340 332 330 328 317 317 309 267 244 275 262 269 263 149 357 79 68 8 352 244 159 218 292 290 263 255 291 284 212 222 249 170 209 204 168 203 233 265 257 259 311 289 264 260 267 271 300 262 251 217 221 239 222 132 223 245 220 225 230 214 225 227 207 175 166 168 171
10 10 9 8 3 360 357 357 356 353 350 346 344 343 342 337 336 339 338 339 341 341 332 329 321 323 313 302 294 254 237 288 266 178 92 64 37 58 5 280 160 201 240 253 282 266 271 259 247 225 228 246 162 213 211 172 230 121 233 246 295 18 307 302 224 262 272 287 265 260 221 230 225 201 171 233 241 246 241 232 229 216 225 213 179 175 175 181
7 6 5 2 359 358 355 357 355 350 347 344 345 338 338 339 335 333 336 333 334 338 335 324 320 312 313 296 291 244 272 278 208 66 68 48 31 18 359 2 221 221 235 287 242 235 244 231 203 225 242 237 211 209 239 151 241 327 243 271 302 293 281 325 333 58 285 333 275 254 223 250 197 212 219 229 241 250 252 242 229 235 227 225 167 180 180 186
3 3 1 359 355 353 352 350 350 350 347 344 339 338 336 333 335 332 330 331 330 332 333 326 313 307 303 300 278 236 238 279 101 117 36 29 28 30 25 202 230 251 213 205 226 219 222 200 212 212 222 240 215 229 157 186 159 246 245 242 258 272 269 52 289 98 204 235 236 237 246 255 197 238 220 229 235 243 67 34 11 247 246 263 159 167 182 190
360 359 358 356 352 350 348 347 347 346 345 341 337 336 330 333 329 331 327 329 327 323 327 323 314 299 302 304 237 241 230 276 146 110 62 5 8 101 127 152 201 204 209 226 220 222 219 245 222 249 256 259 252 244 179 191 184 247 277 308 261 240 243 270 268 116 225 242 243 266 18 247 236 251 245 235 236 244 249 114 133 85 89 139 160 172 185 192
357 354 355 352 350 346 345 345 344 343 341 339 334 331 330 330 329 325 322 322 319 321 320 314 311 303 309 245 210 222 221 255 92 111 98 4 168 129 175 195 190 209 220 231 247 237 256 262 263 334 258 258 49 248 125 233 203 234 249 269 276 249 255 255 238 228 229 239 251 296 257 245 246 261 297 250 247 245 246 216 176 175 180 178 184 184 192 197
353 351 351 349 348 343 342 343 341 340 339 335 332 328 327 324 323 322 319 315 313 313 314 315 298 302 288 275 241 282 251 87 72 85 99 147 148 140 227 185 197 214 232 240 255 280 277 256 248 238 311 300 59 258 177 254 242 214 260 309 269 258 259 246 245 241 233 239 208 230 244 252 255 344 270 258 254 245 243 241 216 194 199 201 203 197 195 199
349 349 348 346 346 343 341 342 340 337 336 334 330 327 325 320 320 319 317 311 307 315 306 304 316 292 294 208 234 257 66 211 109 91 96 124 129 170 198 289 228 229 229 201 240 239 250 326 326 44 293 269 251 263 66 218 301 0 296 290 280 272 274 246 243 252 227 240 201 225 249 252 177 174 269 246 254 239 232 231 223 213 220 215 211 208 204 203
344 344 344 343 343 340 339 339 339 337 335 333 328 324 321 318 317 317 316 307 312 311 309 294 284 329 221 230 245 264 94 213 182 98 122 181 225 212 141 342 306 249 247 230 261 329 331 266 126 118 220 307 100 220 226 281 347 298 320 293 272 257 247 242 235 242 200 248 215 228 255 263 198 212 248 233 108 178 202 211 212 213 225 222 217 213 208 210
337 338 340 341 339 335 335 335 336 336 333 330 327 322 319 316 316 316 310 308 311 314 323 322 187 266 271 249 240 264 147 50 210 140 130 192 130 81 34 302 268 271 272 258 178 7 346 20 205 226 291 33 263 332 238 17 283 301 303 290 279 276 255 228 227 226 198 225 151 171 273 241 217 233 238 238 150 175 195 210 210 217 222 221 219 215 210 211
325 331 334 337 333 331 332 334 332 333 332 329 326 323 318 314 313 314 314 310 314 303 310 49 225 243 267 253 244 64 270 99 96 124 122 110 110 105 103 120 217 231 270 281 162 121 298 216 241 263 277 278 282 283 71 258 248 282 254 257 282 271 261 245 196 165 171 200 141 181 274 263 205 225 244 223 177 181 208 218 220 224 222 221 217 213 214 209
321 322 326 329 330 330 328 330 328 327 329 327 325 320 316 310 311 313 309 302 302 284 228 250 263 238 222 263 92 255 81 76 118 178 142 149 170 114 150 140 134 150 189 155 86 110 176 249 256 275 121 261 281 71 252 213 203 253 274 206 259 277 270 134 168 166 200 143 170 187 253 271 280 214 226 166 178 182 216 220 225 227 221 217 215 214 214 210
313 316 319 326 330 326 323 326 321 324 325 324 321 315 311 306 311 312 310 285 44 62 167 241 235 221 224 254 97 98 331 327 226 188 134 192 175 143 163 139 91 86 87 97 122 138 181 186 219 220 212 85 271 252 263 260 223 228 253 252 223 227 269 172 185 173 201 141 192 180 245 259 277 293 145 152 175 202 229 233 230 232 227 216 211 212 212 214
315 312 312 320 324 329 325 324 318 317 321 321 317 309 302 300 305 306 296 302 299 191 212 196 179 251 307 268 118 133 210 217 207 91 112 336 233 240 136 130 114 117 130 74 82 157 200 199 256 326 75 180 231 251 273 277 263 228 228 264 269 262 268 254 185 200 241 122 188 196 250 281 269 96 128 143 177 205 233 244 243 245 244 230 216 208 211 212
309 310 314 316 322 327 325 316 314 317 319 318 315 300 295 293 300 287 249 225 178 219 224 296 162 173 266 83 121 223 223 163 65 165 117 295 316 166 148 151 170 138 124 134 191 204 162 230 125 244 225 251 250 243 260 262 269 256 216 248 270 275 280 272 104 249 187 200 198 215 244 247 257 268 223 182 207 200 232 255 255 255 252 245 232 216 207 208
304 312 314 315 322 325 321 317 316 319 321 319 309 294 287 298 302 274 217 218 131 205 217 294 231 256 233 100 248 238 52 125 180 114 94 51 261 201 201 195 134 175 164 168 167 226 173 226 155 265 246 217 218 216 219 249 255 286 294 274 266 267 260 269 270 160 176 200 240 225 228 251 258 260 269 258 207 220 239 251 260 260 256 250 242 233 220 208
299 308 315 312 314 321 318 319 322 322 322 320 298 281 268 252 261 252 216 151 176 177 208 172 189 194 282 125 129 115 127 85 103 170 174 160 184 212 209 305 184 168 208 215 178 198 169 237 218 249 247 229 214 213 218 235 258 278 284 280 282 280 277 271 287 130 186 187 220 234 248 258 261 258 258 261 260 246 239 252 259 257 257 256 250 243 231 218
291 305 311 309 312 313 318 320 321 321 325 325 329 317 199 220 184 196 181 218 225 237 292 183 203 273 301 190 187 67 125 217 162 199 122 132 148 178 204 199 172 236 234 221 172 197 169 214 224 233 237 238 231 226 236 252 270 282 278 273 269 272 273 271 273 150 193 255 245 248 255 259 262 264 263 265 268 270 269 261 257 256 257 252 247 245 238 224
289 294 303 302 308 312 315 317 316 320 322 308 302 293 287 305 268 276 94 244 236 250 257 251 238 254 263 77 139 161 203 203 236 166 168 159 223 170 196 188 198 222 220 225 236 102 179 233 236 242 247 259 271 274 249 256 263 266 270 271 274 269 269 268 283 141 184 218 266 263 268 263 264 265 264 265 264 257 262 264 259 263 262 256 250 249 243 230
277 287 286 292 307 309 314 312 316 321 311 280 283 308 8 49 5 321 303 279 236 228 275 257 22 270 260 236 97 243 103 267 213 177 154 192 175 202 175 190 205 229 193 179 140 188 209 223 240 245 262 274 81 270 261 263 268 264 254 263 270 264 266 273 153 146 150 206 262 266 270 270 270 268 266 260 255 250 240 249 263 268 268 266 260 254 242 193
266 269 276 291 305 310 310 313 314 316 319 337 334 310 34 349 318 299 277 275 274 232 232 231 227 240 249 136 172 151 229 222 244 175 174 182 171 220 195 198 227 231 182 192 215 211 235 234 245 255 216 243 254 210 244 251 247 247 240 237 242 257 273 274 136 157 195 215 287 298 286 275 271 260 252 247 247 248 241 246 253 258 263 261 258 259 241 185
257 263 271 288 309 303 310 316 307 284 340 331 308 18 351 323 301 288 241 255 287 211 210 228 245 241 239 236 171 181 212 242 218 223 156 171 185 188 229 219 238 235 228 217 219 227 227 242 70 122 210 221 249 225 209 233 241 221 229 243 252 251 248 253 301 281 247 229 250 286 271 264 247 254 241 235 234 242 250 246 246 254 256 257 268 265 239 197
249 256 265 280 295 306 305 320 296 351 314 261 162 26 348 294 283 307 283 281 228 232 71 287 183 245 214 59 140 189 231 248 222 64 168 184 178 153 223 220 233 242 236 233 237 242 249 248 126 172 191 212 233 246 224 229 255 246 222 226 241 255 267 270 291 355 305 292 157 343 308 265 243 237 238 163 133 207 237 238 241 240 248 245 249 247 208 197
245 251 260 275 291 306 302 295 71 335 314 321 13 349 313 275 280 278 282 272 269 173 78 225 147 224 115 186 124 196 57 250 83 121 168 232 343 227 115 218 203 246 241 237 242 245 253 106 172 227 234 211 234 245 251 210 246 245 245 236 247 253 264 270 276 333 281 268 96 319 346 294 153 229 205 163 188 195 177 216 241 233 231 233 237 221 186 193
244 244 255 267 294 318 304 24 357 305 270 128 33 332 303 273 256 286 271 249 266 157 174 44 209 162 3 87 152 115 229 209 101 94 162 30 201 227 232 218 166 236 18 47 340 238 201 193 196 218 224 230 236 248 235 217 235 247 54 324 166 252 252 254 261 241 265 289 273 156 241 280 283 192 210 206 231 234 229 242 246 225 218 220 233 205 177 187
233 235 239 249 248 290 313 303 310 303 339 19 326 314 291 269 248 249 238 289 267 108 136 195 260 16 315 145 269 209 355 59 181 178 3 67 250 185 223 229 220 218 181 180 238 76 191 186 192 195 207 218 233 242 329 197 217 271 37 18 54 300 265 233 232 259 267 298 271 198 193 261 264 190 194 197 218 221 233 243 250 250 243 237 233 201 177 183
224 221 218 211 218 342 297 279 295 282 44 345 331 306 306 257 260 275 262 257 114 111 336 125 253 193 106 142 201 241 230 146 304 72 233 105 284 323 215 239 250 287 202 203 243 238 52 29 195 202 179 227 189 45 353 195 225 125 129 78 79 85 90 213 256 260 276 265 257 211 177 237 275 147 181 196 203 209 224 231 239 240 236 235 227 180 175 182
215 210 201 159 160 235 244 228 238 47 22 354 304 304 305 243 219 230 214 246 49 228 139 82 188 182 156 159 208 202 231 191 55 124 179 193 170 243 339 7 274 237 243 242 266 282 99 161 41 222 221 239 88 57 41 20 54 124 142 142 116 164 200 194 235 264 294 254 245 216 192 191 277 192 165 161 197 202 205 221 234 235 223 220 186 172 173 177
211 203 189 165 219 275 258 253 137 102 45 346 275 285 261 223 237 242 241 230 353 200 103 164 182 127 165 178 211 191 221 196 153 159 151 220 172 215 222 193 210 258 256 253 252 248 197 155 213 224 73 107 125 95 56 56 136 178 149 209 220 227 200 241 217 182 249 266 230 185 192 188 242 125 175 188 188 196 176 220 242 248 234 213 171 179 177 174
210 200 189 182 221 178 218 306 124 144 112 305 287 223 214 232 210 229 237 83 271 159 176 175 172 185 203 213 252 163 182 192 182 189 195 187 185 182 196 203 153 194 237 215 246 186 228 214 201 112 245 179 165 204 104 126 170 213 198 184 222 248 174 229 168 221 211 250 92 164 181 217 230 235 196 190 192 196 184 232 256 256 240 228 169 164 168 169
206 202 190 197 197 216 229 152 141 126 143 217 287 224 206 225 251 221 227 125 253 113 169 48 174 188 210 201 236 164 12 211 172 201 202 193 211 222 214 223 188 219 268 176 225 190 242 80 176 189 91 218 180 204 177 206 190 189 196 191 195 251 239 256 246 240 264 250 155 142 178 245 279 269 227 237 214 200 217 224 233 238 239 240 162 147 160 172
207 200 202 200 205 210 183 145 151 141 158 245 217 188 241 231 246 109 208 185 216 41 85 133 121 185 194 203 198 166 224 220 149 195 189 202 201 232 211 220 229 254 220 252 239 206 261 250 201 153 223 162 191 213 207 248 164 201 200 179 208 214 235 262 248 250 248 274 128 175 121 229 128 231 182 214 216 208 221 224 209 218 211 114 98 127 152 177
210 206 207 204 208 207 161 155 149 165 150 142 145 211 201 234 248 233 222 213 185 142 143 62 176 184 229 245 124 217 231 215 188 162 196 202 209 210 211 203 204 209 166 243 213 155 230 250 111 153 24 146 190 211 95 105 151 191 197 219 248 234 224 242 254 283 317 332 289 173 219 249 242 82 167 221 200 203 211 221 198 206 199 152 152 175 183 191
213 217 200 207 190 188 149 146 159 162 165 134 149 212 223 222 242 173 252 197 161 195 134 157 190 209 224 222 171 217 154 240 163 193 229 215 229 225 212 193 189 188 176 205 160 231 83 254 119 119 55 172 160 5 190 181 226 163 162 205 213 23 230 256 278 273 85 290 261 172 255 249 254 258 178 172 187 187 204 215 208 214 202 173 191 189 192 192
218 204 212 197 198 163 158 156 154 155 182 199 178 214 224 243 234 256 351 220 276 172 144 231 205 207 210 231 200 187 191 182 199 184 230 168 249 233 207 214 189 190 202 183 226 220 237 238 89 173 216 87 327 329 351 10 351 111 216 213 58 335 22 243 259 245 246 253 273 256 259 279 265 295 152 171 189 188 205 205 212 211 192 192 204 192 189 198
219 209 229 215 185 153 155 150 144 145 149 184 215 237 225 250 240 249 93 85 349 193 218 203 247 186 228 232 234 177 157 197 164 164 252 172 266 169 189 218 189 195 206 211 223 265 164 271 174 298 46 90 98 208 229 167 320 262 222 350 178 206 202 212 239 245 257 255 266 273 270 262 257 251 149 195 184 203 206 207 214 201 194 208 208 216 206 201
220 214 237 222 148 160 150 147 142 140 151 187 207 245 242 253 273 272 179 227 31 235 229 235 247 211 238 246 265 159 158 207 147 198 214 190 242 151 181 177 200 205 206 200 226 235 187 234 225 335 154 107 150 192 220 173 196 195 298 248 346 332 243 195 198 239 231 262 269 275 283 272 228 243 184 190 190 206 204 207 201 206 205 204 203 210 219 204
201 238 244 116 148 138 140 136 133 141 166 199 208 229 219 266 239 232 225 222 237 220 240 255 239 260 235 249 251 239 199 219 170 213 206 159 238 154 193 171 183 197 210 196 207 214 244 138 262 95 298 200 219 189 210 168 180 194 220 230 190 213 14 355 307 234 222 243 245 271 281 275 279 238 162 180 193 199 199 197 192 204 208 204 202 212 213 208
199 249 269 146 140 133 126 128 142 174 197 257 271 259 252 251 272 260 233 81 299 358 292 258 253 242 243 254 232 225 219 209 228 232 208 231 215 261 169 177 187 169 153 168 227 187 208 172 236 158 198 213 235 164 197 203 194 185 184 200 198 176 194 216 245 211 238 230 235 251 255 270 274 97 142 143 158 175 196 187 181 192 203 202 209 219 222 222
200 241 205 149 141 141 141 163 205 182 203 200 210 191 243 260 262 266 246 200 254 253 49 291 263 266 267 258 265 243 236 220 218 236 211 238 206 232 144 187 192 136 147 175 204 208 197 196 223 218 209 223 212 195 332 17 7 281 213 219 196 196 183 190 232 209 142 235 259 246 266 259 261 112 101 107 134 157 200 177 197 189 198 195 209 214 219 222
208 243 43 152 159 153 159 203 182 189 216 236 331 308 266 266 275 283 267 190 231 165 268 248 235 253 239 251 258 266 235 256 228 236 240 242 264 243 359 197 129 175 184 313 299 347 43 188 214 249 269 288 349 55 253 58 284 288 256 247 205 214 204 209 224 218 225 175 212 232 235 260 270 99 105 127 190 212 196 218 224 223 193 197 210 212 220 206
246 171 105 202 181 171 177 191 196 217 224 268 242 245 240 258 251 260 241 226 216 167 225 230 267 232 260 259 297 253 215 269 208 255 262 266 267 5 354 230 166 210 197 193 219 146 209 183 225 241 250 282 265 216 208 191 198 218 225 215 224 234 219 226 346 86 249 223 239 236 251 246 260 118 230 256 206 196 213 218 222 230 213 210 214 212 210 214
219 332 165 186 216 226 204 195 209 204 210 217 218 229 232 235 221 238 239 228 219 224 273 246 243 64 250 183 255 262 245 248 287 266 280 293 283 21 353 342 231 251 235 354 345 193 225 169 187 221 223 230 225 223 230 203 194 212 232 231 216 216 217 203 231 217 244 238 237 243 259 254 265 279 281 258 180 215 213 221 201 210 221 210 209 202 195 206
204 257 153 214 212 226 262 296 265 215 207 213 233 234 228 242 214 234 230 244 227 232 226 222 40 138 239 252 251 245 250 234 234 240 250 260 274 9 283 350 328 291 345 337 331 266 258 275 206 219 227 230 233 249 277 85 141 200 206 216 218 214 213 220 226 232 228 238 237 237 245 259 262 268 268 273 261 242 253 219 188 221 220 225 216 202 203 205
319 241 150 216 208 238 242 222 227 194 219 186 228 148 228 229 230 249 191 251 204 222 223 219 216 232 222 223 237 251 242 255 239 253 246 256 247 249 278 97 300 282 300 332 319 341 13 254 233 241 244 249 250 252 259 262 255 207 220 216 211 209 206 210 216 232 230 255 250 236 247 249 247 257 269 275 276 269 260 273 267 228 210 207 205 203 217 223
245 244 222 185 193 197 220 237 233 228 231 199 221 194 225 225 222 235 185 221 211 198 207 214 223 226 228 225 218 234 220 237 228 244 233 244 262 258 265 238 245 191 121 217 21 258 252 256 253 260 256 257 259 262 260 258 255 254 237 233 217 210 213 214 224 231 221 232 245 241 244 247 250 246 259 265 269 264 269 272 275 273 266 217 173 214 231 233
242 327 306 1 238 208 213 210 208 217 216 211 221 214 229 229 230 220 209 188 209 211 196 236 213 216 219 225 225 237 222 254 238 228 225 232 223 235 250 259 241 199 164 212 187 189 276 243 253 247 264 263 264 263 263 264 267 265 259 248 238 222 222 225 231 220 225 239 241 246 253 258 258 258 254 260 264 271 278 281 279 270 257 243 207 240 256 251
232 241 260 274 273 297 294 247 235 232 230 212 225 216 221 229 235 232 226 212 213 213 192 231 223 220 218 220 223 228 222 223 234 248 218 217 236 203 236 219 235 54 164 216 201 228 202 232 221 246 257 255 255 258 259 259 261 263 263 263 264 262 251 241 243 230 230 235 242 243 250 260 262 259 260 260 264 277 282 277 266 257 268 267 270 278 278 276
331 350 337 309 294 261 251 264 249 229 228 224 230 226 225 229 233 229 234 214 217 201 180 222 215 236 228 226 226 231 231 231 235 236 245 222 223 200 214 205 206 195 144 195 172 222 190 247 229 246 250 248 240 245 247 249 253 261 268 272 266 257 258 254 237 222 230 243 245 252 256 253 255 256 254 266 276 268 267 268 267 273 271 274 283 276 269 268
313 307 314 320 284 217 269 221 242 255 244 226 233 227 223 233 233 233 249 230 235 233 224 213 216 229 229 232 236 230 228 230 234 237 242 251 258 296 239 201 186 186 181 213 186 205 188 216 221 220 236 240 240 239 244 252 257 254 247 245 243 246 251 263 265 260 243 232 244 241 233 234 245 257 274 274 266 262 259 259 264 265 267 272 268 264 263 263